EWG592 EDDB-LPMA

Flight info

Callsign EWG592
Flight time 4h 46m
Altitude 34000
Route KISUC1Q KISUC Z20 MAG Z92 ABGUS DCT WRB DCT IBESA DCT GESLO DCT IDOSA DCT TOLVU DCT RAPOR DCT GIMER DCT ESTOC DCT PON DCT DITAL DCT GODIX DCT DIDAK DCT KURIS DCT TERPO DCT ERIGA DCT AZFIC DCT LOTEE DCT AGADO DCT UBANI DCT VERAM DCT TELMU DCT LIDRO
Aircraft A320/M-SDE3FGHIRWY/LB1

Departure

Time 2026-05-07 10:42
Airport Berlin Brandenburg Airport (EDDB)

Arrival

Time 2026-05-07 15:28
Airport Cristiano Ronaldo International Airport (LPMA)
Time Latitude Longitude Altitude Speed Heading
2026-05-07 10:01 52.35927 13.49884 159 ft 0 kts 70°
2026-05-07 10:29 52.35924 13.49872 158 ft 4 kts 69°
2026-05-07 10:30 52.35925 13.49797 158 ft 4 kts 150°
2026-05-07 10:30 52.35933 13.49791 158 ft 0 kts 159°
2026-05-07 10:36 52.35916 13.49812 158 ft 5 kts 122°
2026-05-07 10:36 52.35925 13.49892 158 ft 9 kts 71°
2026-05-07 10:36 52.35970 13.49959 158 ft 10 kts 359°
2026-05-07 10:36 52.36040 13.49917 158 ft 11 kts 337°
2026-05-07 10:37 52.36107 13.49874 158 ft 10 kts 339°
2026-05-07 10:37 52.36178 13.49830 158 ft 12 kts 339°
2026-05-07 10:37 52.36260 13.49779 158 ft 14 kts 339°
2026-05-07 10:37 52.36357 13.49717 158 ft 16 kts 339°
2026-05-07 10:38 52.36471 13.49647 158 ft 19 kts 339°
2026-05-07 10:38 52.36596 13.49567 158 ft 20 kts 339°
2026-05-07 10:38 52.36718 13.49487 158 ft 17 kts 332°
2026-05-07 10:38 52.36727 13.49319 158 ft 16 kts 248°
2026-05-07 10:39 52.36688 13.49152 158 ft 16 kts 249°
2026-05-07 10:39 52.36650 13.48994 158 ft 14 kts 249°
2026-05-07 10:39 52.36629 13.48902 158 ft 13 kts 249°
2026-05-07 10:39 52.36582 13.48706 158 ft 19 kts 249°
2026-05-07 10:40 52.36527 13.48476 158 ft 23 kts 249°
2026-05-07 10:40 52.36581 13.48332 157 ft 15 kts 337°
2026-05-07 10:40 52.36695 13.48294 151 ft 20 kts 18°
2026-05-07 10:40 52.36747 13.48408 152 ft 19 kts 70°
2026-05-07 10:41 52.36772 13.48516 152 ft 0 kts 68°
2026-05-07 10:41 52.36779 13.48544 153 ft 10 kts 68°
2026-05-07 10:41 52.36951 13.49268 151 ft 94 kts 69°
2026-05-07 10:41 52.37139 13.50051 156 ft 128 kts 68°
2026-05-07 10:42 52.37518 13.51656 174 ft 171 kts 68°
2026-05-07 10:42 52.37931 13.53473 838 ft 170 kts 70°
2026-05-07 10:42 52.38316 13.55310 1538 ft 174 kts 69°
2026-05-07 10:42 52.38734 13.57309 1798 ft 196 kts 69°
2026-05-07 10:43 52.39255 13.59530 2061 ft 222 kts 66°
2026-05-07 10:43 52.39924 13.61943 2460 ft 242 kts 62°
2026-05-07 10:43 52.40931 13.64183 3239 ft 248 kts 39°
2026-05-07 10:43 52.42492 13.65334 4228 ft 252 kts 17°
2026-05-07 10:44 52.44190 13.66058 5077 ft 263 kts 15°
2026-05-07 10:44 52.45978 13.66810 5934 ft 266 kts 16°
2026-05-07 10:44 52.47772 13.67620 6725 ft 268 kts 17°
2026-05-07 10:44 52.49548 13.68494 7417 ft 271 kts 16°
2026-05-07 10:45 52.51437 13.68839 8097 ft 277 kts 355°
2026-05-07 10:45 52.53311 13.68065 8808 ft 281 kts 335°
2026-05-07 10:45 52.54905 13.66233 9518 ft 285 kts 314°
2026-05-07 10:45 52.56072 13.63578 10223 ft 288 kts 303°
2026-05-07 10:46 52.57138 13.60820 10882 ft 290 kts 303°
2026-05-07 10:46 52.58178 13.57955 11574 ft 292 kts 295°
2026-05-07 10:46 52.58752 13.54755 12217 ft 295 kts 277°
2026-05-07 10:46 52.58720 13.51340 12636 ft 308 kts 261°
2026-05-07 10:47 52.57981 13.47893 12787 ft 330 kts 243°
2026-05-07 10:47 52.56882 13.44435 12985 ft 349 kts 243°
2026-05-07 10:47 52.55749 13.40861 13599 ft 355 kts 243°
2026-05-07 10:47 52.54605 13.37245 14265 ft 359 kts 243°
2026-05-07 10:48 52.53450 13.33577 14911 ft 363 kts 243°
2026-05-07 10:48 52.52304 13.29924 15506 ft 366 kts 243°
2026-05-07 10:48 52.51132 13.26192 16103 ft 367 kts 243°
2026-05-07 10:48 52.49967 13.22487 16590 ft 371 kts 242°
2026-05-07 10:49 52.48775 13.18701 17053 ft 375 kts 242°
2026-05-07 10:49 52.47570 13.14878 17554 ft 378 kts 241°
2026-05-07 10:49 52.46355 13.11032 18046 ft 381 kts 241°
2026-05-07 10:49 52.45128 13.07157 18522 ft 384 kts 241°
2026-05-07 10:50 52.43893 13.03267 18951 ft 386 kts 241°
2026-05-07 10:50 52.42650 12.99349 19426 ft 387 kts 241°
2026-05-07 10:50 52.41423 12.95490 19917 ft 387 kts 241°
2026-05-07 10:50 52.40172 12.91562 20376 ft 389 kts 241°
2026-05-07 10:51 52.38916 12.87622 20779 ft 392 kts 242°
2026-05-07 10:51 52.37648 12.83644 21186 ft 394 kts 241°
2026-05-07 10:51 52.36377 12.79667 21625 ft 396 kts 241°
2026-05-07 10:51 52.35092 12.75657 22041 ft 398 kts 241°
2026-05-07 10:52 52.33800 12.71633 22421 ft 401 kts 241°
2026-05-07 10:52 52.32512 12.67638 22812 ft 403 kts 242°
2026-05-07 10:52 52.31191 12.63556 23158 ft 406 kts 240°
2026-05-07 10:52 52.29863 12.59461 23519 ft 409 kts 241°
2026-05-07 10:53 52.28529 12.55340 23814 ft 412 kts 241°
2026-05-07 10:53 52.27029 12.51344 24138 ft 413 kts 232°
2026-05-07 10:53 52.25127 12.47835 24454 ft 413 kts 222°
2026-05-07 10:53 52.22869 12.44924 24750 ft 414 kts 212°
2026-05-07 10:54 52.20344 12.42662 25041 ft 415 kts 205°
2026-05-07 10:54 52.17751 12.40581 25359 ft 416 kts 205°
2026-05-07 10:54 52.15148 12.38488 25672 ft 418 kts 205°
2026-05-07 10:54 52.12594 12.36319 26015 ft 420 kts 211°
2026-05-07 10:55 52.10248 12.33464 26303 ft 423 kts 221°
2026-05-07 10:55 52.08261 12.29885 26559 ft 428 kts 233°
2026-05-07 10:55 52.06731 12.25711 26835 ft 432 kts 244°
2026-05-07 10:55 52.05718 12.21097 27127 ft 436 kts 255°
2026-05-07 10:56 52.05017 12.16298 27415 ft 438 kts 255°
2026-05-07 10:56 52.04305 12.11460 27676 ft 440 kts 255°
2026-05-07 10:56 52.03594 12.06686 27964 ft 442 kts 255°
2026-05-07 10:56 52.02862 12.01815 28246 ft 444 kts 255°
2026-05-07 10:57 52.02126 11.96915 28503 ft 446 kts 255°
2026-05-07 10:57 52.01392 11.92022 28749 ft 447 kts 254°
2026-05-07 10:57 52.00659 11.87143 28996 ft 449 kts 254°
2026-05-07 10:57 51.99915 11.82211 29221 ft 451 kts 254°
2026-05-07 10:58 51.99158 11.77256 29494 ft 452 kts 253°
2026-05-07 10:58 51.98357 11.72321 29733 ft 453 kts 252°
2026-05-07 10:58 51.97514 11.67386 29964 ft 455 kts 251°
2026-05-07 10:58 51.96651 11.62441 30225 ft 455 kts 251°
2026-05-07 10:59 51.95786 11.57500 30526 ft 453 kts 252°
2026-05-07 10:59 51.94926 11.52575 30793 ft 453 kts 252°
2026-05-07 10:59 51.94078 11.47714 31023 ft 454 kts 252°
2026-05-07 10:59 51.93224 11.42798 31302 ft 453 kts 253°
2026-05-07 11:00 51.92383 11.37934 31611 ft 451 kts 253°
2026-05-07 11:00 51.91541 11.33044 31931 ft 449 kts 253°
2026-05-07 11:00 51.90699 11.28172 32247 ft 448 kts 253°
2026-05-07 11:00 51.89857 11.23326 32542 ft 446 kts 253°
2026-05-07 11:01 51.89014 11.18492 32868 ft 445 kts 253°
2026-05-07 11:01 51.88171 11.13675 33186 ft 444 kts 253°
2026-05-07 11:01 51.87327 11.08878 33498 ft 442 kts 253°
2026-05-07 11:01 51.86483 11.04090 33809 ft 441 kts 253°
2026-05-07 11:02 51.85640 10.99319 33988 ft 439 kts 253°
2026-05-07 11:02 51.84804 10.94584 34020 ft 437 kts 253°
2026-05-07 11:02 51.83144 10.85223 34019 ft 435 kts 253°
2026-05-07 11:03 51.81465 10.75828 34019 ft 434 kts 253°
2026-05-07 11:03 51.79779 10.66461 34008 ft 433 kts 253°
2026-05-07 11:04 51.78082 10.57103 34007 ft 434 kts 253°
2026-05-07 11:04 51.76386 10.47784 34002 ft 434 kts 253°
2026-05-07 11:05 51.74684 10.38425 33997 ft 434 kts 253°
2026-05-07 11:05 51.72970 10.29076 33997 ft 434 kts 253°
2026-05-07 11:06 51.71247 10.19734 34001 ft 434 kts 253°
2026-05-07 11:06 51.69522 10.10440 34010 ft 434 kts 253°
2026-05-07 11:07 51.67789 10.01115 34006 ft 434 kts 253°
2026-05-07 11:07 51.66045 9.91785 34003 ft 434 kts 253°
2026-05-07 11:08 51.64300 9.82529 34010 ft 434 kts 253°
2026-05-07 11:08 51.62535 9.73226 34007 ft 434 kts 253°
2026-05-07 11:09 51.60767 9.63935 34006 ft 435 kts 253°
2026-05-07 11:09 51.58988 9.54598 34004 ft 436 kts 253°
2026-05-07 11:10 51.57216 9.45324 34010 ft 436 kts 253°
2026-05-07 11:10 51.55423 9.36010 34003 ft 436 kts 253°
2026-05-07 11:11 51.53611 9.26692 34005 ft 437 kts 253°
2026-05-07 11:11 51.51804 9.17442 34006 ft 437 kts 253°
2026-05-07 11:12 51.49626 9.08352 34013 ft 437 kts 242°
2026-05-07 11:12 51.46671 8.99827 34022 ft 437 kts 242°
2026-05-07 11:13 51.43717 8.91297 34030 ft 437 kts 242°
2026-05-07 11:13 51.40773 8.82811 34032 ft 437 kts 241°
2026-05-07 11:14 51.37810 8.74303 34035 ft 437 kts 241°
2026-05-07 11:14 51.34836 8.65810 34032 ft 437 kts 241°
2026-05-07 11:15 51.31852 8.57341 34021 ft 437 kts 241°
2026-05-07 11:15 51.28862 8.48869 34020 ft 437 kts 241°
2026-05-07 11:16 51.25888 8.40469 34024 ft 437 kts 241°
2026-05-07 11:16 51.22884 8.32016 34030 ft 437 kts 241°
2026-05-07 11:17 51.19880 8.23574 34028 ft 437 kts 242°
2026-05-07 11:17 51.16874 8.15136 34030 ft 437 kts 241°
2026-05-07 11:18 51.13855 8.06708 34031 ft 437 kts 241°
2026-05-07 11:18 51.10845 7.98357 34032 ft 437 kts 241°
2026-05-07 11:19 51.07814 7.89960 34037 ft 437 kts 242°
2026-05-07 11:19 51.04774 7.81567 34031 ft 437 kts 242°
2026-05-07 11:20 51.01759 7.73266 34037 ft 436 kts 241°
2026-05-07 11:20 50.98708 7.64911 34038 ft 436 kts 240°
2026-05-07 11:21 50.95665 7.56583 34039 ft 436 kts 241°
2026-05-07 11:21 50.92617 7.48250 34047 ft 436 kts 242°
2026-05-07 11:22 50.89558 7.39935 34047 ft 436 kts 240°
2026-05-07 11:22 50.86502 7.31678 34050 ft 436 kts 240°
2026-05-07 11:23 50.83431 7.23391 34052 ft 436 kts 240°
2026-05-07 11:23 50.80374 7.15144 34054 ft 436 kts 240°
2026-05-07 11:24 50.77299 7.06875 34048 ft 436 kts 240°
2026-05-07 11:24 50.74207 6.98625 34043 ft 436 kts 240°
2026-05-07 11:25 50.71112 6.90390 34043 ft 436 kts 240°
2026-05-07 11:25 50.68014 6.82158 34045 ft 436 kts 240°
2026-05-07 11:26 50.64913 6.73926 34044 ft 436 kts 241°
2026-05-07 11:26 50.61831 6.65786 34043 ft 435 kts 241°
2026-05-07 11:27 50.58715 6.57608 34035 ft 435 kts 240°
2026-05-07 11:27 50.55593 6.49431 34018 ft 435 kts 240°
2026-05-07 11:28 50.52996 6.42642 34021 ft 435 kts 240°
2026-05-07 11:28 50.49452 6.34949 34024 ft 436 kts 226°
2026-05-07 11:29 50.44563 6.29414 34030 ft 439 kts 207°
2026-05-07 11:29 50.39095 6.25097 34023 ft 439 kts 208°
2026-05-07 11:30 50.33632 6.20750 34021 ft 440 kts 208°
2026-05-07 11:30 50.28204 6.16444 34022 ft 440 kts 208°
2026-05-07 11:31 50.22733 6.12130 34019 ft 440 kts 208°
2026-05-07 11:31 50.17256 6.07821 34025 ft 440 kts 208°
2026-05-07 11:32 50.09037 6.01415 34045 ft 441 kts 205°
2026-05-07 11:33 50.03205 5.98600 34036 ft 442 kts 195°
2026-05-07 11:33 49.97242 5.96215 34045 ft 442 kts 195°
2026-05-07 11:34 49.91277 5.93812 34035 ft 442 kts 196°
2026-05-07 11:34 49.85347 5.91425 34050 ft 442 kts 195°
2026-05-07 11:35 49.79494 5.88596 34036 ft 440 kts 207°
2026-05-07 11:35 49.76875 5.86180 34043 ft 437 kts 219°
2026-05-07 11:35 49.74618 5.83059 34042 ft 434 kts 230°
2026-05-07 11:36 49.71450 5.75211 34035 ft 430 kts 250°
2026-05-07 11:36 49.69440 5.66553 34045 ft 430 kts 251°
2026-05-07 11:37 49.67401 5.57844 34046 ft 431 kts 251°
2026-05-07 11:37 49.65349 5.49113 34048 ft 431 kts 251°
2026-05-07 11:38 49.63304 5.40464 34052 ft 431 kts 251°
2026-05-07 11:38 49.61293 5.31751 34048 ft 431 kts 252°
2026-05-07 11:39 49.59434 5.22971 34057 ft 430 kts 253°
2026-05-07 11:39 49.57735 5.14121 34060 ft 430 kts 256°
2026-05-07 11:40 49.56232 5.05210 34053 ft 429 kts 256°
2026-05-07 11:40 49.54725 4.96349 34058 ft 429 kts 256°
2026-05-07 11:41 49.53144 4.87479 34068 ft 429 kts 255°
2026-05-07 11:41 49.51544 4.78648 34074 ft 428 kts 255°
2026-05-07 11:42 49.49940 4.69832 34073 ft 427 kts 255°
2026-05-07 11:42 49.48347 4.61077 34075 ft 427 kts 255°
2026-05-07 11:43 49.46753 4.52284 34079 ft 426 kts 255°
2026-05-07 11:43 49.45147 4.43495 34074 ft 426 kts 254°
2026-05-07 11:44 49.43544 4.34794 34072 ft 425 kts 254°
2026-05-07 11:44 49.41920 4.26059 34073 ft 425 kts 254°
2026-05-07 11:45 49.40285 4.17335 34073 ft 425 kts 254°
2026-05-07 11:45 49.38653 4.08599 34072 ft 424 kts 254°
2026-05-07 11:46 49.37030 3.99949 34074 ft 424 kts 254°
2026-05-07 11:46 49.35522 3.91195 34075 ft 424 kts 257°
2026-05-07 11:47 49.34309 3.82321 34073 ft 424 kts 258°
2026-05-07 11:47 49.33136 3.73502 34076 ft 424 kts 258°
2026-05-07 11:48 49.31881 3.64655 34069 ft 424 kts 257°
2026-05-07 11:48 49.30582 3.55826 34067 ft 424 kts 257°
2026-05-07 11:49 49.29281 3.47004 34072 ft 423 kts 257°
2026-05-07 11:49 49.27990 3.38199 34079 ft 423 kts 257°
2026-05-07 11:50 49.26696 3.29463 34081 ft 423 kts 257°
2026-05-07 11:50 49.25390 3.20685 34071 ft 422 kts 257°
2026-05-07 11:51 49.24082 3.11922 34069 ft 423 kts 257°
2026-05-07 11:51 49.22764 3.03160 34071 ft 422 kts 257°
2026-05-07 11:52 49.21435 2.94402 34072 ft 422 kts 257°
2026-05-07 11:52 49.20111 2.85653 34072 ft 422 kts 257°
2026-05-07 11:53 49.18776 2.76914 34077 ft 422 kts 257°
2026-05-07 11:53 49.17443 2.68232 34077 ft 422 kts 257°
2026-05-07 11:54 49.16093 2.59509 34080 ft 422 kts 256°
2026-05-07 11:54 49.14741 2.50834 34081 ft 421 kts 256°
2026-05-07 11:55 49.13375 2.42121 34084 ft 421 kts 256°
2026-05-07 11:55 49.12382 2.33294 34054 ft 421 kts 262°
2026-05-07 11:56 49.11564 2.24422 34052 ft 421 kts 262°
2026-05-07 11:56 49.10742 2.15610 34047 ft 421 kts 261°
2026-05-07 11:57 49.09900 2.06747 34052 ft 421 kts 259°
2026-05-07 11:57 49.08051 1.98369 34045 ft 420 kts 245°
2026-05-07 11:58 49.05617 1.90324 34033 ft 421 kts 245°
2026-05-07 11:58 49.03177 1.82210 34044 ft 421 kts 245°
2026-05-07 11:59 49.00743 1.74143 34054 ft 421 kts 245°
2026-05-07 11:59 48.98283 1.66031 34061 ft 421 kts 245°
2026-05-07 12:00 48.95816 1.57936 34067 ft 421 kts 245°
2026-05-07 12:00 48.93344 1.49859 34072 ft 421 kts 245°
2026-05-07 12:01 48.90875 1.41789 34077 ft 421 kts 245°
2026-05-07 12:01 48.88413 1.33776 34076 ft 421 kts 245°
2026-05-07 12:02 48.85926 1.25700 34081 ft 421 kts 245°
2026-05-07 12:02 48.83437 1.17654 34080 ft 420 kts 244°
2026-05-07 12:03 48.80953 1.09672 34076 ft 420 kts 244°
2026-05-07 12:03 48.78454 1.01651 34073 ft 420 kts 244°
2026-05-07 12:04 48.75948 0.93636 34067 ft 420 kts 244°
2026-05-07 12:04 48.73216 0.85795 34078 ft 421 kts 238°
2026-05-07 12:05 48.70164 0.78249 34069 ft 420 kts 238°
2026-05-07 12:05 48.67119 0.70758 34065 ft 420 kts 238°
2026-05-07 12:06 48.64056 0.63214 34054 ft 420 kts 238°
2026-05-07 12:06 48.60997 0.55689 34058 ft 420 kts 238°
2026-05-07 12:07 48.57941 0.48213 34058 ft 420 kts 238°
2026-05-07 12:07 48.54862 0.40716 34066 ft 420 kts 238°
2026-05-07 12:08 48.51780 0.33221 34063 ft 420 kts 238°
2026-05-07 12:08 48.48699 0.25740 34063 ft 419 kts 238°
2026-05-07 12:09 48.45613 0.18264 34060 ft 419 kts 238°
2026-05-07 12:09 48.42519 0.10817 34055 ft 419 kts 238°
2026-05-07 12:10 48.39437 0.03405 34054 ft 420 kts 238°
2026-05-07 12:10 48.36329 -0.04029 34056 ft 420 kts 237°
2026-05-07 12:11 48.32988 -0.11232 34062 ft 419 kts 233°
2026-05-07 12:11 48.29479 -0.18125 34062 ft 419 kts 232°
2026-05-07 12:12 48.25926 -0.25067 34058 ft 419 kts 233°
2026-05-07 12:12 48.22390 -0.32035 34048 ft 419 kts 232°
2026-05-07 12:13 48.18868 -0.38937 34043 ft 419 kts 232°
2026-05-07 12:13 48.15312 -0.45888 34048 ft 419 kts 232°
2026-05-07 12:14 48.11753 -0.52814 34046 ft 419 kts 232°
2026-05-07 12:14 48.08207 -0.59695 34049 ft 419 kts 232°
2026-05-07 12:15 48.04643 -0.66606 34053 ft 419 kts 232°
2026-05-07 12:15 48.01072 -0.73509 34049 ft 419 kts 232°
2026-05-07 12:16 47.97504 -0.80396 34054 ft 420 kts 232°
2026-05-07 12:16 47.93940 -0.87253 34059 ft 420 kts 232°
2026-05-07 12:17 47.90952 -0.92972 34057 ft 420 kts 232°
2026-05-07 12:17 47.87363 -0.99828 34041 ft 419 kts 232°
2026-05-07 12:18 47.83782 -1.06677 34036 ft 419 kts 232°
2026-05-07 12:18 47.80197 -1.13516 34036 ft 419 kts 232°
2026-05-07 12:19 47.76601 -1.20349 34023 ft 419 kts 232°
2026-05-07 12:19 47.73013 -1.27163 34030 ft 419 kts 231°
2026-05-07 12:20 47.69439 -1.33931 34025 ft 419 kts 231°
2026-05-07 12:20 47.65832 -1.40734 34020 ft 419 kts 231°
2026-05-07 12:21 47.62203 -1.47535 34015 ft 420 kts 231°
2026-05-07 12:21 47.58561 -1.54250 34013 ft 419 kts 229°
2026-05-07 12:22 47.54679 -1.60707 34013 ft 419 kts 227°
2026-05-07 12:22 47.50719 -1.67048 34019 ft 419 kts 227°
2026-05-07 12:23 47.46813 -1.73375 34019 ft 418 kts 227°
2026-05-07 12:23 47.42911 -1.79777 34019 ft 419 kts 228°
2026-05-07 12:24 47.39005 -1.86172 34019 ft 418 kts 227°
2026-05-07 12:24 47.34996 -1.92383 34020 ft 418 kts 220°
2026-05-07 12:25 47.30194 -1.97097 34024 ft 418 kts 212°
2026-05-07 12:25 47.25206 -2.01556 34025 ft 418 kts 212°
2026-05-07 12:26 47.20268 -2.05964 34023 ft 418 kts 212°
2026-05-07 12:26 47.15301 -2.10393 34025 ft 417 kts 212°
2026-05-07 12:27 47.10333 -2.14815 34021 ft 417 kts 212°
2026-05-07 12:27 47.05369 -2.19216 34021 ft 416 kts 212°
2026-05-07 12:28 47.00408 -2.23605 34020 ft 416 kts 211°
2026-05-07 12:28 46.95474 -2.27956 34018 ft 416 kts 212°
2026-05-07 12:29 46.90513 -2.32327 34018 ft 416 kts 211°
2026-05-07 12:29 46.85980 -2.37527 34019 ft 415 kts 228°
2026-05-07 12:30 46.82758 -2.44509 34032 ft 415 kts 239°
2026-05-07 12:30 46.79897 -2.51800 34019 ft 416 kts 239°
2026-05-07 12:31 46.77007 -2.59121 34015 ft 416 kts 239°
2026-05-07 12:31 46.74133 -2.66366 34017 ft 417 kts 238°
2026-05-07 12:32 46.71214 -2.73685 34016 ft 417 kts 238°
2026-05-07 12:32 46.68314 -2.80954 34014 ft 417 kts 238°
2026-05-07 12:33 46.63931 -2.91932 34018 ft 417 kts 238°
2026-05-07 12:33 46.60996 -2.99245 34016 ft 418 kts 238°
2026-05-07 12:34 46.58070 -3.06503 34017 ft 418 kts 238°
2026-05-07 12:34 46.54486 -3.13084 34015 ft 416 kts 225°
2026-05-07 12:35 46.50462 -3.19124 34008 ft 416 kts 225°
2026-05-07 12:35 46.46446 -3.25172 34010 ft 416 kts 225°
2026-05-07 12:36 46.42428 -3.31225 34011 ft 417 kts 225°
2026-05-07 12:36 46.38400 -3.37272 34009 ft 417 kts 225°
2026-05-07 12:37 46.34382 -3.43273 34008 ft 417 kts 225°
2026-05-07 12:37 46.30337 -3.49288 34000 ft 417 kts 225°
2026-05-07 12:38 46.26291 -3.55300 34007 ft 417 kts 225°
2026-05-07 12:38 46.22242 -3.61318 34009 ft 417 kts 225°
2026-05-07 12:39 46.18211 -3.67303 34003 ft 418 kts 225°
2026-05-07 12:39 46.14144 -3.73313 34005 ft 418 kts 225°
2026-05-07 12:40 46.12191 -3.76446 33412 ft 426 kts 233°
2026-05-07 12:40 46.10333 -3.79611 34070 ft 396 kts 226°
2026-05-07 12:40 46.08428 -3.82459 34418 ft 397 kts 223°
2026-05-07 12:40 46.06405 -3.85242 34414 ft 404 kts 222°
2026-05-07 12:41 46.02269 -3.90846 34414 ft 416 kts 223°
2026-05-07 12:41 45.98128 -3.96736 34425 ft 419 kts 225°
2026-05-07 12:42 45.94060 -4.02725 34263 ft 421 kts 225°
2026-05-07 12:42 45.92012 -4.05756 34150 ft 422 kts 225°
2026-05-07 12:42 45.89969 -4.08765 33973 ft 421 kts 225°
2026-05-07 12:43 45.85858 -4.14763 34005 ft 421 kts 224°
2026-05-07 12:43 45.81733 -4.20743 34004 ft 421 kts 224°
2026-05-07 12:44 45.77596 -4.26711 34000 ft 421 kts 224°
2026-05-07 12:44 45.73494 -4.32643 34007 ft 422 kts 224°
2026-05-07 12:45 45.69365 -4.38624 34000 ft 421 kts 224°
2026-05-07 12:45 45.65229 -4.44572 34003 ft 421 kts 224°
2026-05-07 12:46 45.61106 -4.50473 34001 ft 421 kts 224°
2026-05-07 12:46 45.56970 -4.56395 33997 ft 421 kts 224°
2026-05-07 12:47 45.52821 -4.62340 33991 ft 421 kts 224°
2026-05-07 12:47 45.48710 -4.68211 33995 ft 421 kts 224°
2026-05-07 12:48 45.44553 -4.74119 33979 ft 422 kts 224°
2026-05-07 12:48 45.40386 -4.80029 33977 ft 423 kts 224°
2026-05-07 12:49 45.36234 -4.85903 33974 ft 423 kts 224°
2026-05-07 12:49 45.32049 -4.91820 33979 ft 423 kts 224°
2026-05-07 12:50 45.27871 -4.97724 33975 ft 424 kts 224°
2026-05-07 12:50 45.23689 -5.03614 33971 ft 423 kts 224°
2026-05-07 12:51 45.19498 -5.09498 33979 ft 424 kts 224°
2026-05-07 12:51 45.15328 -5.15343 33979 ft 424 kts 224°
2026-05-07 12:52 45.11128 -5.21227 33969 ft 424 kts 224°
2026-05-07 12:52 45.06939 -5.27061 33969 ft 424 kts 224°
2026-05-07 12:53 45.02731 -5.32907 33976 ft 424 kts 224°
2026-05-07 12:53 44.98528 -5.38743 33961 ft 424 kts 225°
2026-05-07 12:54 44.94316 -5.44587 33962 ft 424 kts 225°
2026-05-07 12:54 44.90104 -5.50418 33959 ft 424 kts 225°
2026-05-07 12:55 44.85880 -5.56248 33958 ft 424 kts 225°
2026-05-07 12:55 44.81685 -5.62023 33954 ft 424 kts 225°
2026-05-07 12:56 44.77452 -5.67818 33959 ft 424 kts 225°
2026-05-07 12:56 44.73225 -5.73624 33953 ft 424 kts 225°
2026-05-07 12:57 44.69012 -5.79398 33931 ft 426 kts 225°
2026-05-07 12:57 44.64714 -5.85168 33935 ft 427 kts 223°
2026-05-07 12:58 44.60191 -5.90590 33935 ft 428 kts 221°
2026-05-07 12:58 44.55564 -5.95867 33939 ft 428 kts 221°
2026-05-07 12:59 44.50990 -6.01144 33936 ft 428 kts 221°
2026-05-07 12:59 44.46415 -6.06511 33945 ft 428 kts 221°
2026-05-07 13:00 44.41847 -6.11867 33912 ft 430 kts 223°
2026-05-07 13:00 44.37263 -6.17210 33915 ft 432 kts 223°
2026-05-07 13:01 44.32625 -6.22595 33909 ft 434 kts 222°
2026-05-07 13:01 44.27979 -6.27989 33908 ft 434 kts 223°
2026-05-07 13:02 44.23316 -6.33380 33902 ft 435 kts 222°
2026-05-07 13:02 44.18669 -6.38739 33908 ft 436 kts 222°
2026-05-07 13:03 44.13995 -6.44135 33909 ft 436 kts 222°
2026-05-07 13:03 44.09309 -6.49528 33895 ft 438 kts 223°
2026-05-07 13:04 44.04599 -6.54939 33898 ft 439 kts 223°
2026-05-07 13:04 43.99876 -6.60352 33894 ft 440 kts 223°
2026-05-07 13:05 43.95140 -6.65756 33894 ft 441 kts 222°
2026-05-07 13:05 43.90414 -6.71141 33900 ft 442 kts 222°
2026-05-07 13:06 43.85663 -6.76546 33900 ft 442 kts 222°
2026-05-07 13:06 43.81705 -6.81040 33890 ft 442 kts 222°
2026-05-07 13:07 43.76939 -6.86444 33884 ft 442 kts 223°
2026-05-07 13:07 43.72177 -6.91836 33889 ft 442 kts 223°
2026-05-07 13:08 43.67408 -6.97223 33899 ft 442 kts 223°
2026-05-07 13:08 43.62670 -7.02567 33906 ft 442 kts 223°
2026-05-07 13:09 43.57897 -7.07929 33886 ft 442 kts 222°
2026-05-07 13:09 43.53120 -7.13281 33893 ft 442 kts 222°
2026-05-07 13:10 43.48387 -7.18587 33893 ft 441 kts 222°
2026-05-07 13:10 43.43619 -7.23920 33884 ft 441 kts 223°
2026-05-07 13:11 43.38854 -7.29228 33911 ft 440 kts 223°
2026-05-07 13:11 43.34091 -7.34514 33901 ft 438 kts 222°
2026-05-07 13:12 43.29379 -7.39746 33907 ft 438 kts 223°
2026-05-07 13:12 43.24639 -7.45006 33895 ft 437 kts 223°
2026-05-07 13:13 43.19898 -7.50254 33896 ft 437 kts 223°
2026-05-07 13:13 43.15158 -7.55487 33881 ft 437 kts 223°
2026-05-07 13:14 43.10443 -7.60673 33863 ft 437 kts 223°
2026-05-07 13:14 43.05705 -7.65870 33867 ft 436 kts 223°
2026-05-07 13:15 43.00969 -7.71060 33876 ft 436 kts 223°
2026-05-07 13:15 42.96236 -7.76248 33871 ft 435 kts 224°
2026-05-07 13:16 42.91531 -7.81387 33873 ft 435 kts 224°
2026-05-07 13:16 42.86803 -7.86544 33876 ft 435 kts 223°
2026-05-07 13:17 42.82071 -7.91696 33883 ft 435 kts 223°
2026-05-07 13:17 42.77326 -7.96848 33882 ft 435 kts 223°
2026-05-07 13:18 42.72615 -8.01943 33858 ft 435 kts 224°
2026-05-07 13:18 42.67877 -8.07063 33876 ft 434 kts 224°
2026-05-07 13:19 42.63145 -8.12175 33883 ft 434 kts 224°
2026-05-07 13:19 42.58414 -8.17270 33885 ft 433 kts 224°
2026-05-07 13:20 42.53716 -8.22324 33890 ft 433 kts 224°
2026-05-07 13:20 42.48984 -8.27398 33889 ft 433 kts 224°
2026-05-07 13:21 42.44257 -8.32461 33886 ft 433 kts 224°
2026-05-07 13:21 42.39551 -8.37486 33881 ft 432 kts 224°
2026-05-07 13:22 42.34822 -8.42512 33893 ft 432 kts 224°
2026-05-07 13:22 42.30095 -8.47534 33906 ft 431 kts 224°
2026-05-07 13:23 42.25392 -8.52552 33896 ft 430 kts 224°
2026-05-07 13:23 42.20718 -8.57512 33887 ft 429 kts 224°
2026-05-07 13:24 42.15999 -8.62493 33905 ft 430 kts 224°
2026-05-07 13:24 42.11290 -8.67463 33904 ft 429 kts 224°
2026-05-07 13:25 42.06611 -8.72395 33870 ft 429 kts 224°
2026-05-07 13:25 42.01915 -8.77335 33904 ft 427 kts 224°
2026-05-07 13:26 41.97234 -8.82248 33911 ft 425 kts 224°
2026-05-07 13:26 41.92601 -8.87099 33909 ft 425 kts 224°
2026-05-07 13:27 41.87933 -8.91982 33910 ft 424 kts 224°
2026-05-07 13:27 41.83227 -8.96798 33896 ft 425 kts 224°
2026-05-07 13:28 41.78502 -9.01467 33903 ft 424 kts 223°
2026-05-07 13:28 41.73738 -9.06157 33909 ft 424 kts 223°
2026-05-07 13:29 41.68999 -9.10863 33900 ft 423 kts 223°
2026-05-07 13:29 41.64311 -9.15512 33913 ft 422 kts 223°
2026-05-07 13:30 41.59597 -9.20182 33908 ft 421 kts 223°
2026-05-07 13:30 41.54899 -9.24827 33922 ft 419 kts 223°
2026-05-07 13:31 41.50242 -9.29507 33921 ft 418 kts 224°
2026-05-07 13:31 41.45613 -9.34196 33920 ft 417 kts 224°
2026-05-07 13:32 41.41014 -9.38845 33921 ft 417 kts 223°
2026-05-07 13:32 41.36376 -9.43509 33911 ft 417 kts 223°
2026-05-07 13:33 41.31741 -9.48155 33904 ft 415 kts 223°
2026-05-07 13:33 41.27153 -9.52749 33937 ft 414 kts 223°
2026-05-07 13:34 41.20249 -9.59639 33937 ft 412 kts 223°
2026-05-07 13:35 41.15699 -9.64176 33913 ft 411 kts 223°
2026-05-07 13:35 41.11123 -9.68733 33932 ft 410 kts 223°
2026-05-07 13:36 41.06560 -9.73266 33936 ft 409 kts 223°
2026-05-07 13:36 41.02029 -9.77760 33935 ft 409 kts 223°
2026-05-07 13:37 40.97470 -9.82268 33934 ft 408 kts 223°
2026-05-07 13:37 40.92919 -9.86759 33935 ft 407 kts 222°
2026-05-07 13:38 40.88380 -9.91239 33934 ft 406 kts 222°
2026-05-07 13:38 40.83888 -9.95668 33938 ft 405 kts 222°
2026-05-07 13:39 40.79369 -10.00104 33938 ft 404 kts 222°
2026-05-07 13:39 40.74857 -10.04529 33939 ft 404 kts 222°
2026-05-07 13:40 40.70346 -10.08952 33940 ft 404 kts 222°
2026-05-07 13:40 40.65836 -10.13362 33929 ft 403 kts 222°
2026-05-07 13:41 40.61325 -10.17757 33935 ft 403 kts 222°
2026-05-07 13:41 40.56842 -10.22128 33933 ft 403 kts 221°
2026-05-07 13:42 40.52336 -10.26522 33939 ft 402 kts 221°
2026-05-07 13:42 40.47830 -10.30892 33942 ft 402 kts 221°
2026-05-07 13:43 40.43327 -10.35261 33932 ft 402 kts 221°
2026-05-07 13:43 40.38853 -10.39603 33935 ft 402 kts 221°
2026-05-07 13:44 40.34339 -10.43958 33938 ft 402 kts 221°
2026-05-07 13:44 40.29827 -10.48301 33938 ft 402 kts 221°
2026-05-07 13:45 40.25343 -10.52614 33941 ft 402 kts 221°
2026-05-07 13:45 40.20833 -10.56954 33939 ft 402 kts 221°
2026-05-07 13:46 40.16329 -10.61281 33949 ft 401 kts 221°
2026-05-07 13:46 40.11829 -10.65590 33955 ft 400 kts 221°
2026-05-07 13:47 40.07335 -10.69890 33956 ft 400 kts 221°
2026-05-07 13:47 40.02862 -10.74158 33958 ft 399 kts 220°
2026-05-07 13:48 39.98373 -10.78439 33959 ft 399 kts 220°
2026-05-07 13:48 39.93888 -10.82704 33946 ft 398 kts 221°
2026-05-07 13:49 39.89430 -10.86935 33955 ft 398 kts 221°
2026-05-07 13:49 39.84951 -10.91180 33957 ft 398 kts 221°
2026-05-07 13:50 39.80478 -10.95423 33967 ft 397 kts 220°
2026-05-07 13:50 39.76035 -10.99630 33973 ft 396 kts 220°
2026-05-07 13:51 39.71574 -11.03840 33952 ft 395 kts 220°
2026-05-07 13:51 39.67121 -11.08027 33964 ft 395 kts 220°
2026-05-07 13:52 39.62697 -11.12182 33961 ft 394 kts 220°
2026-05-07 13:52 39.58255 -11.16347 33957 ft 394 kts 220°
2026-05-07 13:53 39.53834 -11.20498 33964 ft 394 kts 220°
2026-05-07 13:53 39.49393 -11.24662 33962 ft 394 kts 220°
2026-05-07 13:54 39.44948 -11.28817 33955 ft 393 kts 220°
2026-05-07 13:54 39.40509 -11.32962 33973 ft 393 kts 220°
2026-05-07 13:55 39.36823 -11.36396 33980 ft 392 kts 220°
2026-05-07 13:55 39.31679 -11.41172 33983 ft 391 kts 220°
2026-05-07 13:56 39.27980 -11.44606 33978 ft 390 kts 220°
2026-05-07 13:56 39.22878 -11.49345 33956 ft 389 kts 220°
2026-05-07 13:57 39.19192 -11.52764 33956 ft 389 kts 220°
2026-05-07 13:57 39.14834 -11.56803 33971 ft 388 kts 220°
2026-05-07 13:58 39.10444 -11.60855 33968 ft 388 kts 220°
2026-05-07 13:58 39.06050 -11.64898 33970 ft 387 kts 220°
2026-05-07 13:59 39.01660 -11.68926 33970 ft 387 kts 220°
2026-05-07 13:59 38.97303 -11.72925 33952 ft 387 kts 219°
2026-05-07 14:00 38.92917 -11.76958 33958 ft 387 kts 219°
2026-05-07 14:00 38.88524 -11.80981 33963 ft 387 kts 219°
2026-05-07 14:01 38.84195 -11.84939 33966 ft 387 kts 219°
2026-05-07 14:01 38.79810 -11.88951 33967 ft 387 kts 219°
2026-05-07 14:02 38.75415 -11.92961 33973 ft 387 kts 219°
2026-05-07 14:02 38.71028 -11.96962 33948 ft 387 kts 219°
2026-05-07 14:03 38.66668 -12.00914 33956 ft 387 kts 219°
2026-05-07 14:03 38.62272 -12.04889 33981 ft 386 kts 219°
2026-05-07 14:04 38.57885 -12.08867 33981 ft 386 kts 219°
2026-05-07 14:04 38.53487 -12.12854 33979 ft 386 kts 219°
2026-05-07 14:05 38.49131 -12.16796 33973 ft 386 kts 219°
2026-05-07 14:05 38.44739 -12.20759 33960 ft 386 kts 219°
2026-05-07 14:06 38.40380 -12.24678 33963 ft 386 kts 219°
2026-05-07 14:06 38.35991 -12.28619 33968 ft 386 kts 219°
2026-05-07 14:07 38.31593 -12.32565 33969 ft 386 kts 219°
2026-05-07 14:07 38.27227 -12.36483 33968 ft 386 kts 219°
2026-05-07 14:08 38.22839 -12.40423 33957 ft 386 kts 219°
2026-05-07 14:08 38.18440 -12.44357 33975 ft 386 kts 218°
2026-05-07 14:09 38.14066 -12.48258 33978 ft 386 kts 218°
2026-05-07 14:09 38.09657 -12.52175 33979 ft 385 kts 218°
2026-05-07 14:10 38.05268 -12.56091 33980 ft 385 kts 218°
2026-05-07 14:10 38.00902 -12.59970 33980 ft 385 kts 218°
2026-05-07 14:11 37.96505 -12.63870 33967 ft 385 kts 218°
2026-05-07 14:11 37.92116 -12.67763 33977 ft 384 kts 218°
2026-05-07 14:12 37.87756 -12.71617 33981 ft 384 kts 218°
2026-05-07 14:12 37.83375 -12.75481 33983 ft 384 kts 218°
2026-05-07 14:13 37.78995 -12.79349 33993 ft 383 kts 217°
2026-05-07 14:13 37.74615 -12.83204 33992 ft 383 kts 217°
2026-05-07 14:14 37.70272 -12.87023 33990 ft 382 kts 217°
2026-05-07 14:14 37.65903 -12.90863 33990 ft 382 kts 217°
2026-05-07 14:15 37.61537 -12.94691 33988 ft 382 kts 217°
2026-05-07 14:15 37.57165 -12.98519 33985 ft 382 kts 217°
2026-05-07 14:16 37.52795 -13.02340 33984 ft 382 kts 217°
2026-05-07 14:16 37.48449 -13.06132 33982 ft 382 kts 217°
2026-05-07 14:17 37.44078 -13.09938 33961 ft 382 kts 217°
2026-05-07 14:17 37.39712 -13.13750 33985 ft 382 kts 217°
2026-05-07 14:18 37.35334 -13.17561 33987 ft 382 kts 217°
2026-05-07 14:18 37.30987 -13.21330 33987 ft 382 kts 217°
2026-05-07 14:19 37.26613 -13.25117 33986 ft 381 kts 217°
2026-05-07 14:19 37.22235 -13.28904 33988 ft 381 kts 217°
2026-05-07 14:20 37.17865 -13.32691 33968 ft 381 kts 217°
2026-05-07 14:20 37.13500 -13.36467 33977 ft 381 kts 216°
2026-05-07 14:21 37.09157 -13.40201 33984 ft 381 kts 216°
2026-05-07 14:21 37.04785 -13.43949 33986 ft 380 kts 216°
2026-05-07 14:22 37.00417 -13.47706 33986 ft 380 kts 216°
2026-05-07 14:22 36.96062 -13.51451 34011 ft 380 kts 216°
2026-05-07 14:23 36.91698 -13.55179 33994 ft 379 kts 216°
2026-05-07 14:23 36.87378 -13.58873 34006 ft 378 kts 216°
2026-05-07 14:24 36.83042 -13.62582 34007 ft 377 kts 216°
2026-05-07 14:24 36.78713 -13.66282 34003 ft 376 kts 216°
2026-05-07 14:25 36.74371 -13.69860 33997 ft 376 kts 214°
2026-05-07 14:25 36.69891 -13.73256 33996 ft 376 kts 213°
2026-05-07 14:26 36.65398 -13.76606 33981 ft 376 kts 213°
2026-05-07 14:26 36.60930 -13.79991 33990 ft 376 kts 213°
2026-05-07 14:27 36.56468 -13.83400 33993 ft 375 kts 213°
2026-05-07 14:27 36.52048 -13.86787 34024 ft 375 kts 213°
2026-05-07 14:28 36.47598 -13.90167 34023 ft 374 kts 213°
2026-05-07 14:28 36.43149 -13.93539 34016 ft 373 kts 213°
2026-05-07 14:29 36.38738 -13.96884 33991 ft 373 kts 213°
2026-05-07 14:29 36.34309 -14.00239 34000 ft 372 kts 213°
2026-05-07 14:30 36.29890 -14.03587 33996 ft 372 kts 213°
2026-05-07 14:30 36.25490 -14.06912 33998 ft 372 kts 213°
2026-05-07 14:31 36.21074 -14.10249 34002 ft 371 kts 213°
2026-05-07 14:31 36.16655 -14.13576 34003 ft 371 kts 213°
2026-05-07 14:32 36.12237 -14.16886 33991 ft 371 kts 213°
2026-05-07 14:32 36.07846 -14.20181 33996 ft 371 kts 213°
2026-05-07 14:33 36.03434 -14.23492 34022 ft 371 kts 213°
2026-05-07 14:33 35.99026 -14.26798 34017 ft 370 kts 213°
2026-05-07 14:34 35.94621 -14.30097 34015 ft 370 kts 213°
2026-05-07 14:34 35.90238 -14.33366 34011 ft 370 kts 212°
2026-05-07 14:35 35.85832 -14.36652 33985 ft 370 kts 213°
2026-05-07 14:35 35.81427 -14.39941 33989 ft 370 kts 213°
2026-05-07 14:36 35.77021 -14.43228 33994 ft 370 kts 213°
2026-05-07 14:36 35.72617 -14.46508 33997 ft 370 kts 212°
2026-05-07 14:37 35.68229 -14.49751 34002 ft 370 kts 212°
2026-05-07 14:37 35.61613 -14.54653 34002 ft 370 kts 213°
2026-05-07 14:38 35.57197 -14.57929 34014 ft 370 kts 212°
2026-05-07 14:38 35.52792 -14.61194 34012 ft 370 kts 212°
2026-05-07 14:39 35.48385 -14.64444 34012 ft 370 kts 212°
2026-05-07 14:39 35.43994 -14.67675 34011 ft 370 kts 212°
2026-05-07 14:40 35.39582 -14.70916 34012 ft 369 kts 212°
2026-05-07 14:40 35.35173 -14.74167 34010 ft 369 kts 212°
2026-05-07 14:41 35.30756 -14.77404 33978 ft 370 kts 212°
2026-05-07 14:41 35.26359 -14.80623 33984 ft 370 kts 212°
2026-05-07 14:42 35.21929 -14.83872 33988 ft 370 kts 212°
2026-05-07 14:42 35.17534 -14.87081 33992 ft 370 kts 212°
2026-05-07 14:43 35.13104 -14.90317 33999 ft 370 kts 212°
2026-05-07 14:43 35.08674 -14.93554 34017 ft 370 kts 212°
2026-05-07 14:44 35.04238 -14.96789 34030 ft 371 kts 212°
2026-05-07 14:44 34.99823 -14.99996 34014 ft 371 kts 212°
2026-05-07 14:45 34.95379 -15.03222 34009 ft 372 kts 212°
2026-05-07 14:45 34.90931 -15.06454 34005 ft 372 kts 212°
2026-05-07 14:46 34.87228 -15.09137 34004 ft 372 kts 212°
2026-05-07 14:46 34.82052 -15.12881 34003 ft 372 kts 212°
2026-05-07 14:47 34.78350 -15.15562 33975 ft 372 kts 212°
2026-05-07 14:47 34.73893 -15.18786 33985 ft 372 kts 212°
2026-05-07 14:48 34.69457 -15.21988 33986 ft 372 kts 212°
2026-05-07 14:48 34.64993 -15.25195 33996 ft 372 kts 212°
2026-05-07 14:49 34.60534 -15.28409 34003 ft 372 kts 212°
2026-05-07 14:49 34.56069 -15.31614 34004 ft 372 kts 212°
2026-05-07 14:50 34.51634 -15.34798 33978 ft 372 kts 212°
2026-05-07 14:50 34.47160 -15.38001 33986 ft 372 kts 212°
2026-05-07 14:51 34.42696 -15.41203 33994 ft 372 kts 212°
2026-05-07 14:51 34.38255 -15.44381 34000 ft 373 kts 212°
2026-05-07 14:52 34.33787 -15.47570 33999 ft 372 kts 212°
2026-05-07 14:52 34.29317 -15.50755 34002 ft 372 kts 212°
2026-05-07 14:53 34.24874 -15.53923 34008 ft 372 kts 212°
2026-05-07 14:53 34.20399 -15.57099 33993 ft 372 kts 213°
2026-05-07 14:54 34.15931 -15.60274 33998 ft 372 kts 213°
2026-05-07 14:54 34.11485 -15.63426 34004 ft 372 kts 213°
2026-05-07 14:55 34.07019 -15.66596 34051 ft 371 kts 213°
2026-05-07 14:55 34.02555 -15.69761 33731 ft 371 kts 213°
2026-05-07 14:56 34.00329 -15.71338 33462 ft 371 kts 213°
2026-05-07 14:56 33.98129 -15.72893 33197 ft 370 kts 213°
2026-05-07 14:56 33.95919 -15.74451 32900 ft 367 kts 213°
2026-05-07 14:56 33.93714 -15.76002 32638 ft 365 kts 213°
2026-05-07 14:57 33.91526 -15.77542 32382 ft 363 kts 213°
2026-05-07 14:57 33.89351 -15.79074 32122 ft 360 kts 213°
2026-05-07 14:57 33.87206 -15.80585 31727 ft 354 kts 213°
2026-05-07 14:57 33.85117 -15.82058 31285 ft 349 kts 213°
2026-05-07 14:58 33.83027 -15.83529 30841 ft 345 kts 213°
2026-05-07 14:58 33.80970 -15.84976 30408 ft 340 kts 213°
2026-05-07 14:58 33.78942 -15.86403 29968 ft 335 kts 213°
2026-05-07 14:58 33.76936 -15.87815 29517 ft 330 kts 213°
2026-05-07 14:59 33.74973 -15.89194 29110 ft 324 kts 213°
2026-05-07 14:59 33.73041 -15.90550 28709 ft 318 kts 213°
2026-05-07 14:59 33.71168 -15.91863 28323 ft 313 kts 213°
2026-05-07 14:59 33.69299 -15.93173 27899 ft 309 kts 214°
2026-05-07 15:00 33.67450 -15.94469 27455 ft 306 kts 214°
2026-05-07 15:00 33.65627 -15.95770 27046 ft 304 kts 215°
2026-05-07 15:00 33.63842 -15.97116 26641 ft 302 kts 216°
2026-05-07 15:00 33.62082 -15.98480 26242 ft 300 kts 216°
2026-05-07 15:01 33.60333 -15.99847 25858 ft 299 kts 216°
2026-05-07 15:01 33.58585 -16.01210 25444 ft 299 kts 216°
2026-05-07 15:01 33.56837 -16.02565 25045 ft 299 kts 216°
2026-05-07 15:01 33.55104 -16.03898 24652 ft 298 kts 216°
2026-05-07 15:02 33.53361 -16.05234 24252 ft 297 kts 216°
2026-05-07 15:02 33.51616 -16.06568 23845 ft 296 kts 216°
2026-05-07 15:02 33.49901 -16.07880 23407 ft 295 kts 216°
2026-05-07 15:02 33.48172 -16.09203 22972 ft 294 kts 216°
2026-05-07 15:03 33.46443 -16.10522 22560 ft 294 kts 216°
2026-05-07 15:03 33.44721 -16.11836 22155 ft 293 kts 216°
2026-05-07 15:03 33.43008 -16.13147 21743 ft 292 kts 217°
2026-05-07 15:03 33.41293 -16.14457 21332 ft 292 kts 217°
2026-05-07 15:04 33.39581 -16.15762 20907 ft 291 kts 217°
2026-05-07 15:04 33.37873 -16.17067 20495 ft 291 kts 217°
2026-05-07 15:04 33.36168 -16.18367 20109 ft 290 kts 217°
2026-05-07 15:04 33.34483 -16.19652 19706 ft 290 kts 217°
2026-05-07 15:05 33.32777 -16.20952 19300 ft 290 kts 217°
2026-05-07 15:05 33.31069 -16.22252 18890 ft 291 kts 217°
2026-05-07 15:05 33.29355 -16.23556 18490 ft 292 kts 217°
2026-05-07 15:05 33.27658 -16.24846 18058 ft 293 kts 217°
2026-05-07 15:06 33.25936 -16.26150 17651 ft 292 kts 217°
2026-05-07 15:06 33.24218 -16.27451 17245 ft 291 kts 217°
2026-05-07 15:06 33.22505 -16.28748 16857 ft 291 kts 217°
2026-05-07 15:06 33.20795 -16.30044 16474 ft 290 kts 217°
2026-05-07 15:07 33.19112 -16.31325 16066 ft 290 kts 217°
2026-05-07 15:07 33.17412 -16.32616 15700 ft 290 kts 217°
2026-05-07 15:07 33.15707 -16.33909 15320 ft 290 kts 217°
2026-05-07 15:07 33.14002 -16.35203 14932 ft 290 kts 217°
2026-05-07 15:08 33.12293 -16.36500 14546 ft 290 kts 217°
2026-05-07 15:08 33.10581 -16.37796 14166 ft 289 kts 217°
2026-05-07 15:08 33.08904 -16.39067 13781 ft 290 kts 217°
2026-05-07 15:08 33.07205 -16.40354 13364 ft 289 kts 217°
2026-05-07 15:09 33.05509 -16.41636 12973 ft 287 kts 217°
2026-05-07 15:09 33.03823 -16.42907 12573 ft 285 kts 217°
2026-05-07 15:09 33.02149 -16.44168 12187 ft 284 kts 217°
2026-05-07 15:09 33.00484 -16.45423 11803 ft 282 kts 217°
2026-05-07 15:10 32.98831 -16.46667 11423 ft 280 kts 217°
2026-05-07 15:10 32.97184 -16.47907 11034 ft 279 kts 217°
2026-05-07 15:10 32.95547 -16.49140 10650 ft 278 kts 216°
2026-05-07 15:10 32.93919 -16.50366 10268 ft 276 kts 216°
2026-05-07 15:11 32.92382 -16.51665 10083 ft 265 kts 224°
2026-05-07 15:11 32.91030 -16.53108 9879 ft 258 kts 225°
2026-05-07 15:11 32.89694 -16.54538 9464 ft 260 kts 225°
2026-05-07 15:11 32.88380 -16.55943 9021 ft 250 kts 225°
2026-05-07 15:12 32.87116 -16.57287 8628 ft 239 kts 225°
2026-05-07 15:12 32.85894 -16.58589 8380 ft 233 kts 225°
2026-05-07 15:12 32.84683 -16.59885 8201 ft 236 kts 225°
2026-05-07 15:12 32.83460 -16.61196 7799 ft 237 kts 226°
2026-05-07 15:13 32.82192 -16.62472 7365 ft 241 kts 218°
2026-05-07 15:13 32.80720 -16.63474 6919 ft 248 kts 206°
2026-05-07 15:13 32.79079 -16.64173 6457 ft 253 kts 201°
2026-05-07 15:13 32.77397 -16.64846 5989 ft 256 kts 201°
2026-05-07 15:14 32.75723 -16.65521 5688 ft 252 kts 201°
2026-05-07 15:14 32.74071 -16.66187 5316 ft 250 kts 201°
2026-05-07 15:14 32.72432 -16.66852 4745 ft 248 kts 200°
2026-05-07 15:14 32.70830 -16.67505 4178 ft 245 kts 201°
2026-05-07 15:15 32.69260 -16.68141 3942 ft 228 kts 200°
2026-05-07 15:15 32.67783 -16.68737 3866 ft 221 kts 200°
2026-05-07 15:15 32.66334 -16.69324 3767 ft 218 kts 200°
2026-05-07 15:15 32.64896 -16.69910 3674 ft 218 kts 201°
2026-05-07 15:16 32.63481 -16.70550 3462 ft 219 kts 210°
2026-05-07 15:16 32.62232 -16.71642 2864 ft 229 kts 227°
2026-05-07 15:16 32.61319 -16.73202 2261 ft 238 kts 245°
2026-05-07 15:16 32.60849 -16.75106 1738 ft 246 kts 263°
2026-05-07 15:17 32.60948 -16.77071 1858 ft 232 kts 282°
2026-05-07 15:17 32.61526 -16.78771 1946 ft 213 kts 301°
2026-05-07 15:17 32.62493 -16.80006 1931 ft 199 kts 324°
2026-05-07 15:17 32.63777 -16.80427 1835 ft 190 kts
2026-05-07 15:18 32.65025 -16.80196 1844 ft 176 kts
2026-05-07 15:18 32.66158 -16.79970 1678 ft 161 kts
2026-05-07 15:18 32.67282 -16.79645 1029 ft 171 kts 18°
2026-05-07 15:18 32.68352 -16.79029 481 ft 167 kts 35°
2026-05-07 15:19 32.69174 -16.78164 212 ft 146 kts 45°
2026-05-07 15:19 32.69809 -16.77412 332 ft 126 kts 45°
2026-05-07 15:19 32.70458 -16.76641 968 ft 134 kts 47°
2026-05-07 15:19 32.71013 -16.75757 1631 ft 132 kts 62°
2026-05-07 15:20 32.71579 -16.74815 1903 ft 150 kts 49°
2026-05-07 15:20 32.72311 -16.73838 2098 ft 170 kts 46°
2026-05-07 15:20 32.73099 -16.72816 2611 ft 160 kts 46°
2026-05-07 15:20 32.73866 -16.71872 2946 ft 158 kts 43°
2026-05-07 15:21 32.74430 -16.70763 3001 ft 157 kts 67°
2026-05-07 15:21 32.74718 -16.69519 2984 ft 155 kts 93°
2026-05-07 15:21 32.74400 -16.68337 2990 ft 149 kts 134°
2026-05-07 15:21 32.73524 -16.67845 3002 ft 140 kts 187°
2026-05-07 15:22 32.72679 -16.68318 3033 ft 136 kts 224°
2026-05-07 15:22 32.72018 -16.69129 3021 ft 136 kts 230°
2026-05-07 15:22 32.71403 -16.69981 3013 ft 136 kts 230°
2026-05-07 15:22 32.70600 -16.70600 3028 ft 150 kts 194°
2026-05-07 15:23 32.69449 -16.70513 3016 ft 186 kts 173°
2026-05-07 15:23 32.68116 -16.70351 2923 ft 196 kts 179°
2026-05-07 15:23 32.66757 -16.70268 2825 ft 195 kts 179°
2026-05-07 15:23 32.65412 -16.70195 2703 ft 190 kts 179°
2026-05-07 15:24 32.64144 -16.70281 2563 ft 175 kts 198°
2026-05-07 15:24 32.63074 -16.70848 2416 ft 165 kts 216°
2026-05-07 15:24 32.62213 -16.71748 2238 ft 166 kts 230°
2026-05-07 15:24 32.61518 -16.72854 2048 ft 169 kts 239°
2026-05-07 15:25 32.61046 -16.74157 1829 ft 174 kts 256°
2026-05-07 15:25 32.60863 -16.75547 1611 ft 166 kts 264°
2026-05-07 15:25 32.60923 -16.76897 1314 ft 163 kts 278°
2026-05-07 15:25 32.61262 -16.78154 1131 ft 159 kts 293°
2026-05-07 15:26 32.61920 -16.79209 963 ft 157 kts 316°
2026-05-07 15:26 32.62767 -16.79906 838 ft 146 kts 333°
2026-05-07 15:26 32.63714 -16.80278 723 ft 142 kts 351°
2026-05-07 15:26 32.64690 -16.80320 627 ft 139 kts
2026-05-07 15:27 32.65649 -16.80172 724 ft 141 kts 11°
2026-05-07 15:27 32.66593 -16.79917 752 ft 139 kts 15°
2026-05-07 15:27 32.67544 -16.79535 596 ft 146 kts 25°
2026-05-07 15:27 32.68413 -16.78982 383 ft 138 kts 38°
2026-05-07 15:28 32.69104 -16.78252 195 ft 125 kts 48°
2026-05-07 15:28 32.69611 -16.77652 176 ft 67 kts 45°
2026-05-07 15:28 32.69871 -16.77347 176 ft 36 kts 45°
2026-05-07 15:28 32.69950 -16.77200 176 ft 11 kts 118°
2026-05-07 15:29 32.69882 -16.77182 176 ft 10 kts 180°
2026-05-07 15:29 32.69824 -16.77204 176 ft 8 kts 214°
2026-05-07 15:29 32.69777 -16.77256 176 ft 15 kts 226°
2026-05-07 15:29 32.69678 -16.77377 176 ft 22 kts 225°
2026-05-07 15:30 32.69595 -16.77479 176 ft 12 kts 227°
2026-05-07 15:30 32.69542 -16.77547 176 ft 9 kts 227°
2026-05-07 15:30 32.69502 -16.77569 176 ft 5 kts 144°
2026-05-07 15:30 32.69499 -16.77565 176 ft 0 kts 136°
2026-05-07 15:31 32.69479 -16.77535 176 ft 6 kts 135°
2026-05-07 15:31 32.69474 -16.77530 176 ft 0 kts 136°
2026-05-07 15:31 32.69470 -16.77525 176 ft 1 kts 136°
2026-05-07 15:31 32.69466 -16.77521 176 ft 0 kts 137°
2026-05-07 15:32 32.69465 -16.77520 176 ft 0 kts 137°